地平线卫星 13星 (GORIZONT 13)

导读

GORIZONT 13是苏联解体后独联体(CIS)继承的地平线(Gorizont)系列通信卫星,由俄罗斯应用力学设计局研发,于1986年11月18日发射。该系列是苏联/俄罗斯地球同步通信卫星的重要组成部分,最初服务于莫斯科奥运会信号传输,后纳入统一卫星通信网,同时支持民用通信与军事指挥,也曾为Okean海洋观测计划提供支持,设计寿命3年,质量约2300千克。

基本信息
目录编号:
17083
目录名称:
GORIZONT 13
国际标识:
1986-090A
轨道中心:
EARTH
卫星名称:
地平线卫星 13星
卫星全名:
地平线卫星 13星 (GORIZONT 13)
卫星状态:
在轨 (已飞行14483 天)
发射日期:
1986-11-18 UTC
国别 :
俄罗斯(独联体) (CIS)
星等 :
--
轨道信息
数据来源 国际轨道数据 AOE轨道数据
星历时间 2026-07-13T19:42:23+0800
16小时前
查看轨道信息
2026-07-11T13:00:00+0800
2天前
查看轨道信息
半长轴 43188.958km 43188.869km
偏心率 0.00155 0.0015577
轨道倾角 12.216° 12.219°
近地点辐角 2.937° 2.636°
升交点赤经 328.657° 328.673°
平近点角 9.402° 295.950°
近地点 36743.878km 36743.456km
远地点 36877.764km 36878.008km
周期 1488.740分钟 1488.735分钟
每日圈数 0.967261 0.967264
详细信息
平衡模式:
三轴稳定
覆盖范围:
全球
运营商:
俄罗斯国家航天集团
运营商所在国:
俄罗斯
制造商(研发单位):
普里克拉德诺伊·梅哈尼基设计局
制造商所在国:
俄罗斯联邦
使用方式:
暂无
卫星简介
地平线卫星(Gorizont)(俄语:Горизонт,Horizon),是1978年至2000年间发射的一系列(共35颗)俄罗斯(前苏联)地球同步通信卫星。该计划的启动是为了开发一个卫星系统来中继信号使全球覆盖1980年的莫斯科奥运会。 最初的四颗卫星是为了这个唯一目的而发射的。 此后,Gorizont系统被集成到YesSSS统一卫星通信系统中,用于中继民用和军用通信。 从1988年起,这些卫星还被用于支持Okean计划。该卫星已退役。
2D轨道图
3D轨道图
轨道高度分析图
轨道倾角分析图
轨道综合分析图
查看轨道综合分析图